| time (UTC) | temp C | wind direction | speed KPH | gust KPH | rain 1hr cm | rain 24hr cm | rain mn cm | humidity % | barometer mb |
| 20260503054003 | 22 | 273 | 3.2 | 9.7 | 0.03 | 0.58 | 0.05 | 88 | 1012.7 |
| 20260503053503 | 22 | 274 | 4.8 | 9.7 | 0.03 | 0.58 | 0.05 | 88 | 1012.7 |
| 20260503053003 | 22 | 273 | 3.2 | 11.3 | 0.03 | 0.58 | 0.05 | 88 | 1012.8 |
| 20260503052502 | 22 | 268 | 3.2 | 11.3 | 0.03 | 0.58 | 0.05 | 88 | 1013.0 |
| 20260503052002 | 22 | 262 | 1.6 | 6.4 | 0.05 | 0.58 | 0.05 | 88 | 1013.0 |
| 20260503051502 | 22 | 264 | 1.6 | 6.4 | 0.05 | 0.58 | 0.05 | 88 | 1012.9 |
| 20260503051003 | 22 | 203 | 1.6 | 8.0 | 0.03 | 0.56 | 0.03 | 89 | 1013.0 |
| 20260503050502 | 22 | 194 | 1.6 | 11.3 | 0.03 | 0.56 | 0.03 | 89 | 1012.8 |
| 20260503050003 | 22 | 182 | 1.6 | 11.3 | 0.03 | 0.56 | 0.03 | 89 | 1012.8 |
| 20260503045503 | 22 | 179 | 1.6 | 6.4 | 0.03 | 0.56 | 0.03 | 89 | 1013.0 |
| 20260503045003 | 22 | 180 | 1.6 | 6.4 | 0.03 | 0.56 | 0.03 | 89 | 1013.1 |
| 20260503044502 | 22 | 158 | 0.0 | 3.2 | 0.03 | 0.56 | 0.03 | 89 | 1013.2 |
| 20260503044024 | 22 | 168 | 1.6 | 8.0 | 0.03 | 0.56 | 0.03 | 89 | 1013.2 |
| 20260503043503 | 22 | 175 | 3.2 | 9.7 | 0.03 | 0.56 | 0.03 | 89 | 1013.2 |
| 20260503043023 | 22 | 180 | 1.6 | 9.7 | 0.03 | 0.56 | 0.03 | 89 | 1013.2 |
| 20260503042502 | 22 | 184 | 0.0 | 6.4 | 0.05 | 0.56 | 0.03 | 89 | 1013.2 |
| 20260503042002 | 22 | 178 | 1.6 | 8.0 | 0.03 | 0.53 | 0.00 | 89 | 1013.3 |
| 20260503041503 | 22 | 185 | 1.6 | 9.7 | 0.03 | 0.53 | 0.00 | 89 | 1013.2 |
| 20260503041003 | 22 | 189 | 1.6 | 9.7 | 0.03 | 0.53 | 0.00 | 89 | 1013.2 |
| 20260503040502 | 22 | 258 | 0.0 | 3.2 | 0.03 | 0.53 | 0.00 | 89 | 1013.2 |
| 20260503040003 | 22 | 268 | 1.6 | 6.4 | 0.03 | 0.53 | 0.00 | 89 | 1013.1 |
| 20260503035523 | 22 | 269 | 1.6 | 6.4 | 0.03 | 0.53 | 0.53 | 89 | 1013.1 |
| 20260503035002 | 22 | 269 | 0.0 | 3.2 | 0.03 | 0.53 | 0.53 | 89 | 1012.8 |
| 20260503034502 | 22 | 219 | 0.0 | 3.2 | 0.03 | 0.53 | 0.53 | 89 | 1012.7 |
| 20260503034002 | 22 | 170 | 0.0 | 1.6 | 0.03 | 0.53 | 0.53 | 89 | 1012.6 |
| 20260503033502 | 22 | 165 | 0.0 | 4.8 | 0.05 | 0.53 | 0.53 | 89 | 1012.4 |
| 20260503033024 | 22 | 165 | 0.0 | 4.8 | 0.05 | 0.53 | 0.53 | 89 | 1012.3 |
| 20260503032502 | 22 | 254 | 1.6 | 4.8 | 0.03 | 0.51 | 0.51 | 89 | 1012.2 |
| 20260503032003 | 22 | 275 | 1.6 | 4.8 | 0.03 | 0.51 | 0.51 | 89 | 1012.3 |
| 20260503031502 | 22 | 279 | 0.0 | 4.8 | 0.03 | 0.51 | 0.51 | 89 | 1012.2 |
| 20260503031003 | 22 | 203 | 0.0 | 4.8 | 0.03 | 0.51 | 0.51 | 89 | 1012.2 |
| 20260503030524 | 22 | 234 | 0.0 | 4.8 | 0.03 | 0.51 | 0.51 | 89 | 1012.0 |
| 20260503030024 | 22 | 258 | 0.0 | 3.2 | 0.03 | 0.51 | 0.51 | 89 | 1011.9 |
| 20260503025503 | 22 | 216 | 0.0 | 3.2 | 0.03 | 0.51 | 0.51 | 89 | 1011.9 |
| 20260503025002 | 22 | 258 | 0.0 | 1.6 | 0.03 | 0.51 | 0.51 | 89 | 1012.0 |
| 20260503024502 | 22 | 171 | 0.0 | 4.8 | 0.03 | 0.51 | 0.51 | 89 | 1011.7 |
| 20260503024003 | 22 | 183 | 1.6 | 4.8 | 0.03 | 0.51 | 0.51 | 89 | 1011.4 |
| 20260503023523 | 22 | 208 | 0.0 | 4.8 | 0.03 | 0.48 | 0.48 | 89 | 1011.8 |
| 20260503023003 | 22 | 207 | 0.0 | 4.8 | 0.03 | 0.48 | 0.48 | 89 | 1012.2 |
| 20260503022503 | 22 | 0 | 0.0 | 0.0 | 0.03 | 0.48 | 0.48 | 89 | 1012.3 |
| 20260503022023 | 22 | 0 | 0.0 | 0.0 | 0.03 | 0.48 | 0.48 | 89 | 1012.2 |
| 20260503021502 | 22 | 0 | 0.0 | 0.0 | 0.03 | 0.48 | 0.48 | 89 | 1011.6 |
| 20260503021003 | 22 | 175 | 0.0 | 1.6 | 0.03 | 0.48 | 0.48 | 89 | 1011.4 |
| 20260503020502 | 21 | 182 | 0.0 | 4.8 | 0.03 | 0.48 | 0.48 | 89 | 1011.2 |
| 20260503020003 | 21 | 186 | 0.0 | 4.8 | 0.05 | 0.48 | 0.48 | 89 | 1011.8 |
| 20260503015502 | 21 | 188 | 0.0 | 1.6 | 0.05 | 0.48 | 0.48 | 89 | 1011.8 |
| 20260503015023 | 21 | 182 | 1.6 | 4.8 | 0.05 | 0.48 | 0.48 | 89 | 1011.8 |
| 20260503014524 | 21 | 187 | 1.6 | 4.8 | 0.05 | 0.48 | 0.48 | 89 | 1011.8 |
| 20260503014003 | 21 | 193 | 0.0 | 3.2 | 0.05 | 0.48 | 0.48 | 89 | 1011.9 |
| 20260503013502 | 21 | 198 | 0.0 | 4.8 | 0.03 | 0.46 | 0.46 | 89 | 1012.0 |
| 20260503013003 | 21 | 187 | 1.6 | 4.8 | 0.03 | 0.46 | 0.46 | 89 | 1012.0 |
| 20260503012503 | 21 | 186 | 1.6 | 6.4 | 0.05 | 0.46 | 0.46 | 89 | 1011.6 |
| 20260503012002 | 21 | 184 | 1.6 | 6.4 | 0.05 | 0.46 | 0.46 | 89 | 1011.6 |
| 20260503011503 | 21 | 178 | 1.6 | 8.0 | 0.05 | 0.46 | 0.46 | 89 | 1011.3 |
| 20260503011023 | 22 | 170 | 3.2 | 8.0 | 0.05 | 0.46 | 0.46 | 89 | 1011.1 |
| 20260503010524 | 22 | 151 | 3.2 | 6.4 | 0.05 | 0.46 | 0.46 | 89 | 1010.7 |
| 20260503010002 | 22 | 131 | 1.6 | 6.4 | 0.03 | 0.43 | 0.43 | 89 | 1010.4 |
| 20260503005503 | 22 | 129 | 1.6 | 6.4 | 0.05 | 0.43 | 0.43 | 89 | 1010.1 |
| 20260503005003 | 22 | 134 | 1.6 | 6.4 | 0.05 | 0.43 | 0.43 | 89 | 1010.2 |
| 20260503004503 | 22 | 209 | 0.0 | 1.6 | 0.05 | 0.43 | 0.43 | 89 | 1011.0 |
| 20260503004023 | 22 | 196 | 0.0 | 3.2 | 0.05 | 0.43 | 0.43 | 89 | 1010.6 |
| 20260503003502 | 22 | 183 | 0.0 | 4.8 | 0.05 | 0.43 | 0.43 | 89 | 1011.1 |
| 20260503003002 | 22 | 174 | 0.0 | 4.8 | 0.08 | 0.43 | 0.43 | 89 | 1010.7 |
| 20260503002503 | 22 | 0 | 0.0 | 0.0 | 0.05 | 0.41 | 0.41 | 89 | 1010.3 |
| 20260503002002 | 22 | 0 | 0.0 | 0.0 | 0.05 | 0.41 | 0.41 | 89 | 1010.1 |
| 20260503001503 | 22 | 0 | 0.0 | 0.0 | 0.08 | 0.41 | 0.41 | 89 | 1010.1 |
| 20260503001002 | 22 | 0 | 0.0 | 0.0 | 0.08 | 0.41 | 0.41 | 89 | 1010.2 |
| 20260503000502 | 22 | 229 | 0.0 | 3.2 | 0.08 | 0.41 | 0.41 | 89 | 1010.5 |
| 20260503000003 | 22 | 199 | 1.6 | 3.2 | 0.08 | 0.41 | 0.41 | 89 | 1010.3 |
| 20260502235523 | 22 | 163 | 1.6 | 6.4 | 0.05 | 0.38 | 0.38 | 89 | 1010.2 |
| 20260502235002 | 22 | 165 | 3.2 | 6.4 | 0.08 | 0.38 | 0.38 | 88 | 1010.2 |
| 20260502234502 | 22 | 191 | 1.6 | 6.4 | 0.08 | 0.38 | 0.38 | 89 | 1010.1 |
| 20260502234002 | 22 | 298 | 0.0 | 3.2 | 0.10 | 0.38 | 0.38 | 88 | 1010.2 |
| 20260502233503 | 22 | 298 | 0.0 | 1.6 | 0.10 | 0.38 | 0.38 | 88 | 1010.1 |
| 20260502233024 | 22 | 298 | 0.0 | 1.6 | 0.08 | 0.36 | 0.36 | 88 | 1010.5 |
| 20260502232503 | 22 | 298 | 0.0 | 3.2 | 0.10 | 0.36 | 0.36 | 88 | 1010.6 |
| 20260502232002 | 22 | 298 | 0.0 | 3.2 | 0.10 | 0.36 | 0.36 | 88 | 1010.6 |
| 20260502231503 | 22 | 298 | 0.0 | 1.6 | 0.10 | 0.33 | 0.33 | 88 | 1010.5 |
| 20260502231002 | 21 | 293 | 1.6 | 8.0 | 0.10 | 0.33 | 0.33 | 88 | 1010.2 |
| 20260502230502 | 21 | 291 | 3.2 | 8.0 | 0.10 | 0.33 | 0.33 | 88 | 1010.4 |
| 20260502230002 | 22 | 297 | 1.6 | 6.4 | 0.13 | 0.33 | 0.33 | 88 | 1010.6 |
| 20260502225502 | 22 | 300 | 1.6 | 6.4 | 0.13 | 0.33 | 0.33 | 88 | 1010.3 |
| 20260502225002 | 22 | 292 | 1.6 | 6.4 | 0.13 | 0.30 | 0.30 | 88 | 1010.1 |
| 20260502224503 | 22 | 311 | 1.6 | 8.0 | 0.15 | 0.30 | 0.30 | 88 | 1010.1 |
| 20260502224003 | 22 | 333 | 1.6 | 8.0 | 0.13 | 0.28 | 0.28 | 88 | 1010.1 |
| 20260502223503 | 22 | 305 | 1.6 | 4.8 | 0.15 | 0.28 | 0.28 | 88 | 1010.1 |
| 20260502223003 | 22 | 294 | 3.2 | 6.4 | 0.15 | 0.28 | 0.28 | 88 | 1010.1 |
| 20260502222503 | 22 | 292 | 1.6 | 6.4 | 0.15 | 0.25 | 0.25 | 88 | 1010.6 |
| 20260502222003 | 23 | 310 | 0.0 | 4.8 | 0.18 | 0.25 | 0.25 | 88 | 1010.2 |
| 20260502221502 | 23 | 310 | 0.0 | 3.2 | 0.15 | 0.23 | 0.23 | 88 | 1010.1 |
| 20260502221003 | 23 | 310 | 0.0 | 3.2 | 0.18 | 0.23 | 0.23 | 88 | 1010.4 |
| 20260502220502 | 23 | 310 | 0.0 | 3.2 | 0.20 | 0.23 | 0.23 | 88 | 1010.5 |
| 20260502220024 | 23 | 310 | 0.0 | 6.4 | 0.20 | 0.20 | 0.20 | 88 | 1010.1 |
| 20260502215523 | 23 | 298 | 1.6 | 6.4 | 0.20 | 0.20 | 0.20 | 88 | 1010.2 |
| 20260502215002 | 23 | 280 | 1.6 | 6.4 | 0.18 | 0.18 | 0.18 | 87 | 1010.3 |
| 20260502214502 | 23 | 258 | 1.6 | 6.4 | 0.15 | 0.15 | 0.18 | 87 | 1009.9 |
| 20260502214003 | 23 | 287 | 3.2 | 8.0 | 0.15 | 0.15 | 0.15 | 87 | 1010.2 |
| 20260502213502 | 23 | 304 | 4.8 | 11.3 | 0.13 | 0.13 | 0.13 | 87 | 1010.4 |
| 20260502213003 | 23 | 304 | 4.8 | 11.3 | 0.13 | 0.13 | 0.13 | 87 | 1010.1 |
| 20260502212503 | 23 | 302 | 3.2 | 9.7 | 0.10 | 0.10 | 0.10 | 87 | 1010.4 |
| 20260502212002 | 22 | 292 | 4.8 | 9.7 | 0.08 | 0.08 | 0.08 | 86 | 1010.1 |
| 20260502211502 | 22 | 280 | 6.4 | 14.5 | 0.08 | 0.08 | 0.08 | 86 | 1010.2 |
| 20260502211002 | 22 | 277 | 9.7 | 16.1 | 0.05 | 0.05 | 0.05 | 85 | 1010.1 |
| 20260502210503 | 23 | 275 | 14.5 | 30.6 | 0.03 | 0.03 | 0.03 | 84 | 1010.4 |
| 20260502210004 | 23 | 282 | 17.7 | 30.6 | 0.00 | 0.00 | 0.00 | 82 | 1010.3 |
| 20260502205502 | 25 | 286 | 9.7 | 30.6 | 0.00 | 0.00 | 0.00 | 78 | 1009.9 |
| 20260502205003 | 27 | 210 | 3.2 | 11.3 | 0.00 | 0.00 | 0.00 | 80 | 1009.0 |
| 20260502204503 | 27 | 246 | 1.6 | 11.3 | 0.00 | 0.00 | 0.00 | 80 | 1009.0 |
| 20260502204002 | 27 | 214 | 1.6 | 9.7 | 0.00 | 0.00 | 0.00 | 80 | 1009.0 |
| 20260502203502 | 27 | 204 | 3.2 | 6.4 | 0.00 | 0.00 | 0.00 | 80 | 1009.1 |
| 20260502203002 | 27 | 240 | 1.6 | 6.4 | 0.00 | 0.00 | 0.00 | 80 | 1009.0 |
| 20260502202502 | 27 | 240 | 1.6 | 8.0 | 0.00 | 0.00 | 0.00 | 80 | 1009.1 |
| 20260502202002 | 27 | 228 | 1.6 | 8.0 | 0.00 | 0.00 | 0.00 | 79 | 1009.1 |
| 20260502201502 | 28 | 219 | 3.2 | 16.1 | 0.00 | 0.00 | 0.00 | 79 | 1009.2 |
| 20260502201003 | 28 | 242 | 3.2 | 16.1 | 0.00 | 0.00 | 0.00 | 79 | 1009.1 |
| 20260502200502 | 28 | 233 | 3.2 | 14.5 | 0.00 | 0.00 | 0.00 | 78 | 1009.2 |
| 20260502200003 | 28 | 192 | 3.2 | 14.5 | 0.00 | 0.00 | 0.00 | 78 | 1009.1 |
| 20260502195524 | 28 | 216 | 3.2 | 12.9 | 0.00 | 0.00 | 0.00 | 78 | 1009.2 |
| 20260502195003 | 28 | 246 | 3.2 | 12.9 | 0.00 | 0.00 | 0.00 | 78 | 1009.3 |
| 20260502194524 | 28 | 248 | 3.2 | 9.7 | 0.00 | 0.00 | 0.00 | 78 | 1009.5 |
| 20260502194002 | 28 | 239 | 3.2 | 9.7 | 0.00 | 0.00 | 0.00 | 77 | 1009.6 |
| 20260502193503 | 28 | 214 | 3.2 | 11.3 | 0.00 | 0.00 | 0.00 | 77 | 1009.6 |
| 20260502193002 | 28 | 231 | 3.2 | 11.3 | 0.00 | 0.00 | 0.00 | 77 | 1009.6 |
| 20260502192523 | 28 | 250 | 4.8 | 11.3 | 0.00 | 0.00 | 0.00 | 76 | 1009.7 |
| 20260502192002 | 29 | 251 | 4.8 | 14.5 | 0.00 | 0.00 | 0.00 | 75 | 1009.7 |
| 20260502191503 | 30 | 222 | 3.2 | 14.5 | 0.00 | 0.00 | 0.00 | 74 | 1009.7 |
| 20260502191002 | 30 | 214 | 3.2 | 14.5 | 0.00 | 0.00 | 0.00 | 76 | 1009.8 |
| 20260502190524 | 30 | 208 | 4.8 | 14.5 | 0.00 | 0.00 | 0.00 | 75 | 1009.9 |
| 20260502190003 | 29 | 215 | 4.8 | 14.5 | 0.00 | 0.00 | 0.00 | 75 | 1010.0 |
| 20260502185502 | 30 | 250 | 4.8 | 14.5 | 0.00 | 0.00 | 0.00 | 75 | 1010.0 |
| 20260502185003 | 29 | 253 | 4.8 | 16.1 | 0.00 | 0.00 | 0.00 | 74 | 1010.0 |
| 20260502184502 | 30 | 225 | 4.8 | 16.1 | 0.00 | 0.00 | 0.00 | 73 | 1010.1 |
| 20260502184002 | 31 | 202 | 4.8 | 16.1 | 0.00 | 0.00 | 0.00 | 72 | 1010.1 |
| 20260502183502 | 30 | 221 | 4.8 | 19.3 | 0.00 | 0.00 | 0.00 | 73 | 1010.1 |
| 20260502183002 | 30 | 218 | 4.8 | 19.3 | 0.00 | 0.00 | 0.00 | 73 | 1010.1 |
| 20260502182502 | 31 | 222 | 4.8 | 17.7 | 0.00 | 0.00 | 0.00 | 73 | 1010.3 |
| 20260502182002 | 31 | 234 | 3.2 | 16.1 | 0.00 | 0.00 | 0.00 | 72 | 1010.2 |
| 20260502181503 | 31 | 231 | 4.8 | 17.7 | 0.00 | 0.00 | 0.00 | 71 | 1010.4 |
| 20260502181003 | 30 | 236 | 4.8 | 17.7 | 0.00 | 0.00 | 0.00 | 75 | 1010.6 |
| 20260502180503 | 30 | 252 | 4.8 | 16.1 | 0.00 | 0.00 | 0.00 | 76 | 1010.7 |
| 20260502164002 | 28 | 248 | 4.8 | 9.7 | 0.00 | 0.00 | 0.00 | 77 | 1011.0 |
| 20260502163524 | 29 | 243 | 4.8 | 11.3 | 0.00 | 0.00 | 0.00 | 75 | 1010.9 |
| 20260502163024 | 30 | 227 | 4.8 | 14.5 | 0.00 | 0.00 | 0.00 | 75 | 1011.0 |
| 20260502162503 | 30 | 209 | 3.2 | 14.5 | 0.00 | 0.00 | 0.00 | 74 | 1011.1 |
| 20260502162002 | 30 | 223 | 3.2 | 11.3 | 0.00 | 0.00 | 0.00 | 75 | 1011.1 |
| 20260502161502 | 29 | 258 | 6.4 | 12.9 | 0.00 | 0.00 | 0.00 | 76 | 1011.1 |
| 20260502161024 | 29 | 262 | 6.4 | 12.9 | 0.00 | 0.00 | 0.00 | 76 | 1011.1 |
| 20260502160524 | 29 | 260 | 4.8 | 11.3 | 0.00 | 0.00 | 0.00 | 76 | 1011.0 |
| 20260502152002 | 30 | 232 | 4.8 | 20.9 | 0.00 | 0.00 | 0.00 | 75 | 1010.6 |
| 20260502151502 | 29 | 229 | 4.8 | 20.9 | 0.00 | 0.00 | 0.00 | 75 | 1010.6 |
| 20260502151004 | 29 | 227 | 4.8 | 17.7 | 0.00 | 0.00 | 0.00 | 76 | 1010.6 |
| 20260502150503 | 29 | 225 | 4.8 | 14.5 | 0.00 | 0.00 | 0.00 | 75 | 1010.6 |
| 20260502130523 | 26 | 195 | 4.8 | 16.1 | 0.00 | 0.00 | 0.00 | 85 | 1009.6 |
| 20260502123502 | 25 | 180 | 4.8 | 22.5 | 0.00 | 0.00 | 0.00 | 88 | 1009.3 |
| 20260502123002 | 25 | 181 | 4.8 | 22.5 | 0.00 | 0.00 | 0.00 | 88 | 1009.4 |
| 20260502122503 | 25 | 188 | 4.8 | 20.9 | 0.00 | 0.00 | 0.00 | 88 | 1009.3 |
| 20260502122002 | 25 | 189 | 6.4 | 20.9 | 0.00 | 0.00 | 0.00 | 88 | 1009.2 |
| 20260502121524 | 25 | 184 | 6.4 | 19.3 | 0.00 | 0.00 | 0.00 | 88 | 1009.2 |
| 20260502121002 | 25 | 182 | 6.4 | 19.3 | 0.00 | 0.00 | 0.00 | 89 | 1009.1 |
| 20260502120503 | 25 | 183 | 6.4 | 16.1 | 0.00 | 0.00 | 0.00 | 89 | 1009.1 |
| 20260502115523 | 24 | 183 | 4.8 | 17.7 | 0.00 | 0.00 | 0.00 | 89 | 1009.0 |
| 20260502115003 | 24 | 181 | 4.8 | 16.1 | 0.00 | 0.00 | 0.00 | 89 | 1009.0 |
| 20260502114503 | 24 | 177 | 4.8 | 16.1 | 0.00 | 0.00 | 0.00 | 89 | 1009.0 |
| 20260502114002 | 23 | 178 | 6.4 | 19.3 | 0.00 | 0.00 | 0.00 | 89 | 1008.9 |
| 20260502113502 | 23 | 180 | 6.4 | 19.3 | 0.00 | 0.00 | 0.00 | 89 | 1008.8 |
| 20260502113003 | 23 | 177 | 6.4 | 14.5 | 0.00 | 0.00 | 0.00 | 89 | 1008.7 |
| 20260502112523 | 22 | 172 | 4.8 | 14.5 | 0.00 | 0.00 | 0.00 | 89 | 1008.8 |
| 20260502112002 | 21 | 164 | 3.2 | 6.4 | 0.00 | 0.00 | 0.00 | 88 | 1009.0 |
| 20260502111524 | 21 | 157 | 1.6 | 6.4 | 0.00 | 0.00 | 0.00 | 88 | 1009.0 |
| 20260502111002 | 21 | 126 | 0.0 | 3.2 | 0.00 | 0.00 | 0.00 | 87 | 1008.9 |
| 20260502110503 | 21 | 110 | 0.0 | 3.2 | 0.00 | 0.00 | 0.00 | 87 | 1008.9 |
| 20260502110003 | 21 | 105 | 0.0 | 1.6 | 0.00 | 0.00 | 0.00 | 87 | 1008.8 |
| 20260502105502 | 21 | 107 | 0.0 | 3.2 | 0.00 | 0.00 | 0.00 | 87 | 1008.8 |
| 20260502105003 | 20 | 107 | 0.0 | 3.2 | 0.00 | 0.00 | 0.00 | 87 | 1008.8 |
| 20260502104502 | 20 | 0 | 0.0 | 0.0 | 0.00 | 0.00 | 0.00 | 86 | 1008.9 |
| 20260502104002 | 20 | 0 | 0.0 | 0.0 | 0.00 | 0.00 | 0.00 | 87 | 1009.0 |
| 20260502103502 | 20 | 0 | 0.0 | 0.0 | 0.00 | 0.00 | 0.00 | 86 | 1009.0 |
| 20260502103002 | 20 | 0 | 0.0 | 0.0 | 0.00 | 0.00 | 0.00 | 86 | 1009.0 |
| 20260502102503 | 21 | 0 | 0.0 | 0.0 | 0.00 | 0.00 | 0.00 | 86 | 1008.9 |
| 20260502102003 | 21 | 0 | 0.0 | 0.0 | 0.00 | 0.00 | 0.00 | 86 | 1009.0 |
| 20260502101503 | 21 | 0 | 0.0 | 0.0 | 0.00 | 0.00 | 0.00 | 86 | 1009.1 |
| 20260502101002 | 21 | 0 | 0.0 | 0.0 | 0.00 | 0.00 | 0.00 | 86 | 1009.1 |
| 20260502100502 | 21 | 0 | 0.0 | 0.0 | 0.00 | 0.00 | 0.00 | 86 | 1009.1 |
| 20260502091502 | 21 | 0 | 0.0 | 0.0 | 0.00 | 0.00 | 0.00 | 85 | 1009.3 |
| 20260502091003 | 21 | 0 | 0.0 | 0.0 | 0.00 | 0.00 | 0.00 | 85 | 1009.3 |
| 20260502090524 | 21 | 0 | 0.0 | 0.0 | 0.00 | 0.00 | 0.00 | 84 | 1009.3 |
| 20260502071502 | 22 | 184 | 0.0 | 1.6 | 0.00 | 0.00 | 0.00 | 83 | 1009.7 |
| 20260502071003 | 22 | 0 | 0.0 | 0.0 | 0.00 | 0.00 | 0.00 | 83 | 1009.7 |
| 20260502070503 | 22 | 0 | 0.0 | 0.0 | 0.00 | 0.00 | 0.00 | 83 | 1009.7 |
| 20260502070003 | 22 | 0 | 0.0 | 0.0 | 0.00 | 0.00 | 0.00 | 83 | 1009.8 |
| 20260502065503 | 22 | 0 | 0.0 | 0.0 | 0.00 | 0.00 | 0.00 | 83 | 1009.7 |
| 20260502065002 | 22 | 184 | 0.0 | 3.2 | 0.00 | 0.00 | 0.00 | 83 | 1009.7 |
| 20260502064503 | 22 | 197 | 0.0 | 3.2 | 0.00 | 0.00 | 0.00 | 83 | 1009.6 |
| 20260502064023 | 22 | 234 | 0.0 | 3.2 | 0.00 | 0.00 | 0.00 | 83 | 1009.6 |
| 20260502063503 | 22 | 245 | 0.0 | 3.2 | 0.00 | 0.00 | 0.00 | 83 | 1009.6 |
| 20260502063002 | 22 | 239 | 0.0 | 3.2 | 0.00 | 0.00 | 0.00 | 83 | 1009.8 |
| 20260502062523 | 22 | 0 | 0.0 | 0.0 | 0.00 | 0.00 | 0.00 | 83 | 1009.9 |
| 20260502062003 | 22 | 0 | 0.0 | 0.0 | 0.00 | 0.00 | 0.00 | 83 | 1010.0 |
| 20260502061502 | 23 | 183 | 0.0 | 1.6 | 0.00 | 0.00 | 0.00 | 83 | 1009.9 |
| 20260502061003 | 23 | 183 | 0.0 | 1.6 | 0.00 | 0.00 | 0.00 | 83 | 1010.0 |
| 20260502060502 | 23 | 183 | 0.0 | 1.6 | 0.00 | 0.00 | 0.00 | 83 | 1009.9 |
| 20260502060003 | 23 | 0 | 0.0 | 0.0 | 0.00 | 0.00 | 0.00 | 83 | 1010.0 |
| 20260502055502 | 23 | 183 | 0.0 | 3.2 | 0.00 | 0.00 | 0.00 | 83 | 1010.0 |
| 20260502055023 | 23 | 183 | 0.0 | 3.2 | 0.00 | 0.00 | 0.00 | 83 | 1010.0 |
| 20260502054503 | 23 | 187 | 0.0 | 3.2 | 0.00 | 0.00 | 0.00 | 83 | 1010.1 |